WGS F8 (USA 272)

Last updated on Wed Oct 29 2025 00:02:49 GMT+0000 (Coordinated Universal Time)

1 41879U 16075A 25300.60877995 -.00000191 00000+0 00000+0 0 9999 2 41879 0.0138 271.9587 0000380 2.1953 131.0457 1.00271310 32486
UTC large
Height (km)
Speed (km/s)
/
Latitude / Longitude
Inclination (degrees)
Orbital Period (minutes)
Azimuth
Elevation
Range (km)
Doppler Factor

Next 0 passes for location: London (51.5072 / 0.1276)

Sorry there are no passes over London.